SATORO-T3

导读

SATORO-T3是新加坡(SG)于2025年6月23日发射的人造卫星,国际标识为2025-135BP。截至2026年3月,该卫星已在轨运行超过230天,运行在近地点约582公里、远地点约590公里的近地轨道,轨道倾角97.758°,绕地球一圈周期约96.4分钟,每日绕地球运行近15圈,目前处于稳定在轨运行状态,是新加坡航天发射活动中的一颗在轨卫星。

Basic Information
目录编号:
64589
目录名称:
SATORO-T3
国际标识:
2025-135BP
轨道中心:
EARTH
卫星名称:
SATORO-T3
卫星全名:
SATORO-T3
卫星状态:
在轨 (已飞行439 天)
发射日期:
2025-06-23 UTC
国别 :
新加坡 (SG)
星等 :
--
Orbit Information
数据来源 国际轨道数据
星历时间: 2026-09-05T15:22:07+0800
8小时前
查看轨道信息
半长轴: 6961.565km
偏心率: 0.0005992
轨道倾角: 97.777°
近地点辐角 71.400°
升交点赤经 2.058°
平近点角 288.787°
近地点: 579.256km
远地点: 587.6km
周期: 96.343分钟
每日圈数: 14.946604
Detailed Information
使用方式:
暂无
2D Orbit Map
3D Orbit Map
Orbit Altitude Analysis Chart
Orbit Inclination Analysis Chart
Orbit Comprehensive Analysis Chart
View Comprehensive Chart
Conjunction Data List
Event ID Objects TCA Miss Dist (km) Collision Risk Probability Collision Risk Index (CRI) Action
CDM_260907-044606-458906-489623
2026-09-07T
04:46:22+0000
1.002 km
极远距离
1.508543E-5 中风险 0.59
CDM_260830-190606-458906-987825
GRUS-3G (69878)
2026-08-30T
19:06:32+0000
2.054 km
极远距离
2.617769E-6 低风险 0.43
CDM_260907-075805-414906-458922
GSLV R/B (54149)
2026-09-07T
07:58:31+0000
2.399 km
极远距离
1.650728E-6 低风险 0.39
CDM_260906-162900-442106-458922
2026-09-06T
16:29:52+0000
2.526 km
极远距离
1.055619E-6 低风险 0.35